This is the latest recevied weather packets stored in our database for station/object WX7FGZ-6. If no packets are shown the sender has not sent any weather packets the latest 10 day(s).
| Time | Temp. | Humidity | Pressure | Rain* | Wind** | Luminosity | Snow |
|---|---|---|---|---|---|---|---|
| 1777745724 | 4.44° C | 37% | 1025 hPa | 0 mm | - | - | - |
| 1777745260 | 4.44° C | 36% | 1025.3 hPa | 0 mm | - | - | - |
| 1777744129 | 3.89° C | 40% | 1024.3 hPa | 0 mm | - | - | - |
| 1777743829 | 3.33° C | 37% | 1024.1 hPa | 0 mm | - | - | - |
| 1777743529 | 3.89° C | 38% | 1023.9 hPa | 0 mm | - | - | - |
| 1777743229 | 3.33° C | 39% | 1023.7 hPa | 0 mm | - | - | - |
| 1777742929 | 3.33° C | 38% | 1023.6 hPa | 0 mm | - | - | - |
| 1777742329 | 2.78° C | 40% | 1023.6 hPa | 0 mm | - | - | - |
| 1777741776 | 2.78° C | 39% | 1023.7 hPa | 0 mm | - | - | - |
| 1777741176 | 2.78° C | 40% | 1023.8 hPa | 0 mm | - | - | - |
| 1777740576 | 2.22° C | 41% | 1024 hPa | 0 mm | - | - | - |
| 1777739977 | 2.22° C | 38% | 1023.7 hPa | 0 mm | - | - | - |
| 1777739676 | 2.22° C | 38% | 1023.6 hPa | 0 mm | - | - | - |
| 1777739377 | 2.22° C | 37% | 1023.5 hPa | 0 mm | - | - | - |
| 1777738937 | 2.22° C | 35% | 1023.6 hPa | 0 mm | - | - | - |
| 1777738101 | 2.22° C | 34% | 1024.1 hPa | 0 mm | - | - | - |
| 1777737501 | 2.22° C | 33% | 1024.6 hPa | 0 mm | - | - | - |
| 1777737201 | 2.22° C | 31% | 1025 hPa | 0 mm | - | - | - |
| 1777736901 | 2.22° C | 31% | 1025.3 hPa | 0 mm | - | - | - |
| 1777736301 | 2.22° C | 32% | 1025.7 hPa | 0 mm | - | - | - |
| 1777736270 | 2.22° C | 31% | 1025.6 hPa | 0 mm | - | - | - |
| 1777736001 | 2.22° C | 31% | 1025.6 hPa | 0 mm | - | - | - |
| 1777735701 | 1.67° C | 29% | 1025.8 hPa | 0 mm | - | - | - |
| 1777735401 | 1.67° C | 28% | 1025.7 hPa | 0 mm | - | - | - |
| 1777735101 | 1.67° C | 28% | 1025.7 hPa | 0 mm | - | - | - |
* Rain latest hour (hover to see other rain measurements)
** Current wind speed in m/s (hover to see current wind gust speed)